Date String (YYYY-MM-DD hh:mm:ss) UTC,Instrument flags,absolute air pressure of the measurement (hPa),sample flow rate (lpm),inlet stack bypass flow (lpm),air temperature of the measurement (°C),ambient temperature measured by the external sensor (°C),aerosol sample conditioner tube jacket temperature (°C),OPC LED temperature (°C),internal box temperature (°C),relative humidity of the measurement (%),span deviation,mass concentration of particles derived from Lorenz-Mie calculation of OPC scattering (μg/m³),mass concentration of particles derived from Lorenz-Mie calculation of OPC scattering (μg/m³),mass concentration of particles derived from Lorenz-Mie calculation of OPC scattering (μg/m³)
DateTimeUTC,F1_M11,P_M11,Q1_M11,Q2_M11,T1_M11,T2_M11,T3_M11,T4_M11,T5_M11,U1_M11,ZSPAN_M11,X0_M11,X2_M11,X1_M11
2023-07-25 16:00:00,SystemResetWarning,0835.1,5.00,000.00,029.2,027.6,000.0,037.6,030.8,27.2,0000.0,0011.11,0004.65,0003.61
2023-07-25 16:01:00,SystemResetWarning,0834.9,5.01,000.00,029.2,027.8,000.0,037.6,030.9,27.4,0000.0,0010.63,0004.60,0003.61
2023-07-25 16:02:00,SystemResetWarning,0834.9,4.99,000.00,029.2,028.0,000.0,037.6,031.0,26.9,0000.0,0010.22,0004.57,0003.61
2023-07-25 16:03:00,SystemResetWarning,0835.1,4.99,000.00,029.3,027.8,000.0,037.6,031.0,27.3,0000.0,0010.50,0004.58,0003.61
2023-07-25 16:04:00,SystemResetWarning,0835.0,5.01,000.00,029.3,026.2,000.0,037.5,030.8,27.2,0000.0,0010.68,0004.60,0003.62
2023-07-25 16:05:00,SystemResetWarning,0834.8,5.00,000.00,029.2,025.1,000.0,037.4,030.5,27.8,0000.0,0010.04,0004.55,0003.61
2023-07-25 16:06:00,SystemResetWarning,0834.6,5.00,000.00,029.1,025.2,000.0,037.4,030.4,25.1,0000.0,0010.52,0004.57,0003.62
2023-07-25 16:07:00,SystemResetWarning,0834.6,5.01,000.00,029.0,025.6,000.0,037.4,030.3,24.7,0000.0,0010.33,0004.51,0003.61
2023-07-25 16:08:00,SystemResetWarning,0834.7,5.00,000.00,029.0,026.0,000.0,037.4,030.4,25.9,0000.0,0010.92,0004.56,0003.61
2023-07-25 16:09:00,SystemResetWarning,0834.8,5.00,000.00,029.0,026.4,000.0,037.5,030.5,25.2,0000.0,0011.18,0004.62,0003.62
2023-07-25 16:10:00,SystemResetWarning,0834.6,5.00,000.00,029.0,026.8,000.0,037.5,030.6,25.5,0000.0,0011.63,0004.68,0003.63
2023-07-25 16:11:00,SystemResetWarning,0834.6,5.00,000.00,029.0,027.1,000.0,037.5,030.7,25.1,0000.0,0011.72,0004.70,0003.64
2023-07-25 16:12:00,SystemResetWarning,0834.7,5.00,000.00,029.1,027.4,000.0,037.5,030.7,24.7,0000.0,0011.69,0004.69,0003.63
2023-07-25 16:13:00,SystemResetWarning,0834.7,5.00,000.00,029.1,027.6,000.0,037.5,030.8,24.1,0000.0,0011.50,0004.68,0003.63
2023-07-25 16:14:00,SystemResetWarning,0834.6,5.00,000.00,029.2,027.9,000.0,037.5,030.9,24.5,0000.0,0011.66,0004.66,0003.63
2023-07-25 16:15:00,SystemResetWarning,0834.7,5.01,000.00,029.2,028.0,000.0,037.6,030.9,26.3,0000.0,0012.53,0004.71,0003.64
2023-07-25 16:16:00,SystemResetWarning,0834.7,5.00,000.00,029.3,028.1,000.0,037.6,031.0,26.0,0000.0,0013.05,0004.77,0003.66
2023-07-25 16:17:00,SystemResetWarning,0834.9,4.99,000.00,029.3,026.8,000.0,037.5,030.9,26.9,0000.0,0012.70,0004.84,0003.67
2023-07-25 16:18:00,SystemResetWarning,0834.9,5.01,000.00,029.2,025.4,000.0,037.4,030.6,26.8,0000.0,0014.16,0004.89,0003.68
2023-07-25 16:19:00,SystemResetWarning,0835.0,5.01,000.00,029.1,025.2,000.0,037.3,030.5,26.0,0000.0,0014.57,0004.90,0003.69
2023-07-25 16:20:00,SystemResetWarning,0835.0,5.00,000.00,029.1,025.6,000.0,037.4,030.4,27.1,0000.0,0015.04,0004.92,0003.69
2023-07-25 16:21:00,SystemResetWarning,0834.8,5.00,000.00,029.0,026.0,000.0,037.4,030.4,27.2,0000.0,0015.21,0004.93,0003.69
2023-07-25 16:22:00,SystemResetWarning,0834.6,5.01,000.00,029.0,026.4,000.0,037.4,030.5,28.4,0000.0,0015.35,0004.96,0003.69
2023-07-25 16:23:00,SystemResetWarning,0834.6,5.00,000.00,029.0,026.8,000.0,037.5,030.6,26.0,0000.0,0020.46,0005.21,0003.70
2023-07-25 16:24:00,SystemResetWarning,0834.6,5.00,000.00,029.1,027.1,000.0,037.5,030.7,23.2,0000.0,0020.91,0005.31,0003.72
2023-07-25 16:25:00,SystemResetWarning,0834.6,5.00,000.00,029.1,027.4,000.0,037.5,030.8,23.8,0000.0,0020.86,0005.32,0003.72
2023-07-25 16:26:00,SystemResetWarning,0834.6,5.00,000.00,029.1,027.6,000.0,037.5,030.8,26.2,0000.0,0019.97,0005.28,0003.72
2023-07-25 16:27:00,SystemResetWarning,0834.6,5.00,000.00,029.2,027.8,000.0,037.5,030.9,26.3,0000.0,0019.90,0005.23,0003.72
2023-07-25 16:28:00,SystemResetWarning,0834.7,5.00,000.00,029.2,028.0,000.0,037.6,030.9,26.9,0000.0,0020.11,0005.22,0003.72
2023-07-25 16:29:00,SystemResetWarning,0834.6,4.98,000.00,029.2,027.2,000.0,037.5,030.8,27.1,0000.0,0018.71,0005.19,0003.71
2023-07-25 16:30:00,SystemResetWarning,0834.7,5.00,000.00,029.2,025.7,000.0,037.4,030.6,25.9,0000.0,0019.15,0005.14,0003.71
2023-07-25 16:31:00,SystemResetWarning,0834.7,5.00,000.00,029.1,025.2,000.0,037.3,030.5,26.8,0000.0,0018.43,0005.07,0003.70
2023-07-25 16:32:00,SystemResetWarning,0834.7,5.01,000.00,029.0,025.5,000.0,037.3,030.3,26.4,0000.0,0017.99,0005.01,0003.69
2023-07-25 16:33:00,SystemResetWarning,0835.0,4.99,000.00,029.0,025.9,000.0,037.4,030.4,26.3,0000.0,0017.86,0004.99,0003.69
2023-07-25 16:34:00,SystemResetWarning,0834.9,5.00,000.00,029.0,026.4,000.0,037.4,030.5,29.1,0000.0,0013.20,0004.77,0003.67
2023-07-25 16:35:00,SystemResetWarning,0835.2,5.00,000.00,029.0,026.7,000.0,037.4,030.6,31.4,0000.0,0012.94,0004.68,0003.67
2023-07-25 16:36:00,SystemResetWarning,0835.2,5.01,000.00,029.0,027.1,000.0,037.4,030.7,28.1,0000.0,0012.80,0004.72,0003.67
2023-07-25 16:37:00,SystemResetWarning,0835.1,5.01,000.00,029.1,027.4,000.0,037.5,030.7,25.7,0000.0,0012.78,0004.73,0003.66
2023-07-25 16:38:00,SystemResetWarning,0835.1,5.00,000.00,029.1,027.6,000.0,037.5,030.8,26.7,0000.0,0012.54,0004.72,0003.67
2023-07-25 16:39:00,SystemResetWarning,0835.2,4.99,000.00,029.2,027.8,000.0,037.5,030.9,26.8,0000.0,0012.12,0004.67,0003.66
2023-07-25 16:40:00,SystemResetWarning,0835.0,5.00,000.00,029.2,028.0,000.0,037.5,030.9,24.8,0000.0,0012.54,0004.64,0003.66
2023-07-25 16:41:00,SystemResetWarning,0834.6,5.00,000.00,029.2,026.9,000.0,037.4,030.8,23.4,0000.0,0011.49,0004.60,0003.65
2023-07-25 16:42:00,SystemResetWarning,0835.1,5.00,000.00,029.1,025.6,000.0,037.4,030.6,21.5,0000.0,0011.18,0004.63,0003.66
2023-07-25 16:43:00,SystemResetWarning,0834.8,5.01,000.00,029.1,025.6,000.0,037.3,030.5,21.4,0000.0,0011.42,0004.63,0003.66
2023-07-25 16:44:00,SystemResetWarning,0834.8,5.01,000.00,029.1,026.0,000.0,037.4,030.4,22.4,0000.0,0011.35,0004.58,0003.66
2023-07-25 16:45:00,SystemResetWarning,0834.6,5.00,000.00,029.0,026.3,000.0,037.4,030.5,23.2,0000.0,0011.35,0004.57,0003.67
2023-07-25 16:46:00,SystemResetWarning,0834.7,5.00,000.00,029.0,026.7,000.0,037.4,030.6,23.2,0000.0,0011.03,0004.56,0003.67
2023-07-25 16:47:00,SystemResetWarning,0835.0,4.99,000.00,029.1,027.1,000.0,037.5,030.7,23.5,0000.0,0011.26,0004.48,0003.67
2023-07-25 16:48:00,SystemResetWarning,0835.1,4.99,000.00,029.1,027.4,000.0,037.5,030.7,25.2,0000.0,0011.16,0004.47,0003.66
2023-07-25 16:49:00,SystemResetWarning,0834.9,4.99,000.00,029.1,027.7,000.0,037.5,030.8,25.7,0000.0,0011.06,0004.53,0003.64
2023-07-25 16:50:00,SystemResetWarning,0834.9,5.00,000.00,029.2,027.9,000.0,037.5,030.9,25.1,0000.0,0011.50,0004.54,0003.64
2023-07-25 16:51:00,SystemResetWarning,0834.7,5.00,000.00,029.2,027.8,000.0,037.5,031.0,26.1,0000.0,0011.25,0004.56,0003.63
2023-07-25 16:52:00,SystemResetWarning,0834.8,4.99,000.00,029.2,026.5,000.0,037.4,030.8,25.1,0000.0,0011.37,0004.57,0003.64
2023-07-25 16:53:00,SystemResetWarning,0835.0,5.00,000.00,029.2,025.7,000.0,037.3,030.7,27.8,0000.0,0010.94,0004.52,0003.63
2023-07-25 16:54:00,SystemResetWarning,0834.7,5.01,000.00,029.1,025.9,000.0,037.3,030.6,27.1,0000.0,0010.52,0004.49,0003.63
2023-07-25 16:55:00,SystemResetWarning,0835.0,5.01,000.00,029.1,026.3,000.0,037.4,030.6,25.8,0000.0,0010.65,0004.49,0003.61
2023-07-25 16:56:00,SystemResetWarning,0834.8,5.00,000.00,029.1,026.6,000.0,037.4,030.6,25.5,0000.0,0010.86,0004.49,0003.59
2023-07-25 16:57:00,SystemResetWarning,0834.5,4.99,000.00,029.1,027.0,000.0,037.5,030.7,23.7,0000.0,0010.87,0004.46,0003.56
2023-07-25 16:58:00,SystemResetWarning,0834.7,4.99,000.00,029.1,027.3,000.0,037.5,030.7,24.5,0000.0,0010.37,0004.47,0003.54
2023-07-25 16:59:00,SystemResetWarning,0834.9,5.00,000.00,029.2,027.6,000.0,037.5,030.8,25.0,0000.0,0009.96,0004.44,0003.53
